Погода в Пчевжа

Россия / Санкт-Петербург и Ленинградская область     59°21′22″N   32°20′40″E
темп.,
°C
ветер,
м/с
пор.,
м/с
влажн.,
%
обл.,
%
осадки,
мм/ч
давл.,
гПа
погр.,
м
16 октября, сб
сб1600:00+7ю71591100 1.3 1001912
03:00+8ююз61490100 2.7 9991175
06:00+8зюз51277100 0.4 10001208
09:00+6юз51178100 0.4 1001774
12:00+8зюз511695 0.1 10021363
15:00+8юз6126544 0.3 10021600
18:00+6юз5116878 0.1 1003800
21:00+5юз51375100 0.3 10031135
17 октября, вс
вс1700:00+5юз51193100 1.1 10021037
03:00+5юз51385100 1.2 1001719
06:00+5юз6138697 0.3 1002851
09:00+6зюз61174100 0.6 10021436
12:00+7зюз61161100 0.1 10031557
15:00+8зюз5116498 0.2 10031482
18:00+5зюз4117259 0.1 1004647
21:00+4юз412815 0.1 1005476
18 октября, пн
пн1800:00+3юз412835 0.0 1004479
03:00+2юз411895 0.0 1004413
06:00+1юз41191100 0.0 1003454
09:00+2юз410875 0.0 1003525
12:00+3зюз41095100 0.4 1003690
15:00+4зсз487875 0.8 1005955
18:00+3сз397984 0.1 1007528
21:00+2зсз389383 0.1 1009425
19 октября, вт
вт1900:00+2зсз389182 0.1 1011376
03:00+2зсз389484 0.2 1013368
06:00+1зсз3793100 0.1 1014338
09:00+1зсз3893100 0.2 1015314
12:00+2сз4992100 0.8 1016602
15:00+2сз499699 1.6 1018580
18:000ссз39816 0.2 1020441
21:00−1зсз388823 0.2 1021309
20 октября, ср
ср2000:00−2зсз268861 0.0 1022199
03:00−2з248399 0.0 1022138
06:00−2юз2478100 0.0 1021149
09:00−1ююз377696 0.0 1020322
12:00+2ю5966100 0.0 1017785
15:00+1ю61372100 0.1 1013922
18:000ю71694100 2.8 1007947
21:00+2ю71883100 5.3 10011044